This demonstration page uses our WeatherBlox Daily Observations layout. Learn more.

Left ArrowRight Arrow

38.20091, -84.87328

Hourly Observations for January 7, 2015

Temp ( °F °C ) Dew Point ( °F °C ) Humidity (%) Winds ( mph kmh ) Pressure ( in mb ) Visibility ( mi km ) Precip ( " mm )
12:53 am 00:53 Partly Cloudy 21 -6.1 11 -11.7 65 65 W 7 11 30.30 1026 10 16 0.00 0.00
1:53 am 01:53 Mostly Clear 20 -6.7 8 -13.3 60 60 WNW 9 15 30.32 1027 10 16 0.00 0.00
2:53 am 02:53 Cloudy 20 -6.7 7 -13.9 57 57 WNW 12 19 30.32 1027 10 16 0.00 0.00
3:53 am 03:53 Cloudy 20 -6.7 6 -14.4 55 55 W 8 13 30.34 1027 10 16 0.00 0.00
4:53 am 04:53 Cloudy 19 -7.2 5 -15 54 54 WNW 13 20 30.34 1027 10 16 0.00 0.00
5:53 am 05:53 Cloudy with Light Snow 18 -7.8 7 -13.9 62 62 WNW 13 20 30.35 1028 7 11 0.00 0.03
6:23 am 06:23 Cloudy with Light Snow 17 -8.3 10 -12.2 74 74 WNW 8 13 30.42 1030 3 4 0.00 0.03
6:37 am 06:37 Cloudy with Light Snow 17 -8.3 10 -12.2 74 74 WNW 10 17 30.42 1030 5 8 0.00 0.03
6:53 am 06:53 Mostly Cloudy 17 -8.3 8 -13.3 68 68 WNW 10 17 30.37 1029 10 16 0.00 0.03
7:08 am 07:08 Cloudy 17 -8.3 8 -13.3 68 68 WNW 7 11 30.42 1030 10 16 0.00 0.00
7:53 am 07:53 Cloudy 17 -8.3 6 -14.4 62 62 WNW 17 28 30.40 1029 10 16 0.00 0.00
8:53 am 08:53 Cloudy with Light Snow 16 -8.9 7 -13.9 67 67 NW 14 22 30.45 1031 4 6 0.00 0.03
9:07 am 09:07 Cloudy with Light Snow 15 -9.4 8 -13.3 74 74 NW 16 26 30.50 1033 2 2 0.00 0.03
9:10 am 09:10 Cloudy with Light Snow 15 -9.4 8 -13.3 74 74 NNW 17 28 30.50 1033 1 1 0.00 0.03
9:23 am 09:23 Cloudy with Light Snow 14 -10 7 -13.9 73 73 NNW 17 28 30.50 1033 1 2 0.00 0.03
9:28 am 09:28 Cloudy with Light Snow 14 -10 5 -15 67 67 NNW 18 30 30.50 1033 3 5 0.00 0.03
9:45 am 09:45 Mostly Cloudy 14 -10 4 -15.6 64 64 NNW 13 20 30.53 1034 10 16 0.00 0.03
9:53 am 09:53 Partly Cloudy 13 -10.6 2 -16.7 61 61 NNW 15 24 30.51 1033 10 16 0.00 0.03
10:53 am 10:53 Partly Cloudy 13 -10.6 -2 -18.9 51 51 NW 9 15 30.54 1034 10 16 0.00 0.00
11:53 am 11:53 Cloudy 13 -10.6 -1 -18.3 54 54 NW 10 17 30.56 1035 10 16 0.00 0.00
12:53 pm 12:53 Cloudy 14 -10 -2 -18.9 49 49 NW 15 24 30.56 1035 10 16 0.00 0.00
1:53 pm 13:53 Cloudy 13 -10.6 -3 -19.4 49 49 NW 12 19 30.57 1035 10 16 0.00 0.00
2:53 pm 14:53 Cloudy 14 -10 -4 -20 44 44 NW 20 31 30.61 1037 10 16 0.00 0.00
3:53 pm 15:53 Mostly Cloudy 12 -11.1 -6 -21.1 44 44 NW 12 19 30.65 1038 10 16 0.00 0.00
4:53 pm 16:53 Mostly Cloudy 12 -11.1 -5 -20.6 46 46 NNW 14 22 30.68 1039 10 16 0.00 0.00
5:53 pm 17:53 Mostly Clear 10 -12.2 -7 -21.7 45 45 NW 10 17 30.72 1040 10 16 0.00 0.00
6:53 pm 18:53 Clear 9 -12.8 -9 -22.8 43 43 NW 9 15 30.76 1042 10 16 0.00 0.00
7:53 pm 19:53 Clear 8 -13.3 -7 -21.7 50 50 NNW 8 13 30.77 1042 10 16 0.00 0.00
8:53 pm 20:53 Clear 7 -13.9 -6 -21.1 55 55 NNW 9 15 30.79 1043 10 16 0.00 0.00
9:53 pm 21:53 Clear 5 -15 -6 -21.1 60 60 NNW 5 7 30.79 1043 10 16 0.00 0.00
10:53 pm 22:53 Clear 4 -15.6 -6 -21.1 63 63 NW 3 6 30.79 1043 10 16 0.00 0.00
11:53 pm 23:53 Clear 3 -16.1 -6 -21.1 66 66 Calm 30.79 1043 10 16 0.00 0.00

Powered by AerisWeather